星链-33979 (STARLINK-33979)

导读

STARLINK-33979是美国于2025年5月10日发射的星链系列卫星,隶属于美国太空探索技术公司SpaceX打造的星链星座项目。该卫星主要为全球范围内用户提供低延迟、高速率的宽带互联网服务,尤其服务偏远地区及网络基础设施薄弱区域,进一步扩充了星链星座的在轨服务规模,强化了星链系统的全球覆盖能力。

基本信息
目录编号:
63867
目录名称:
STARLINK-33979
国际标识:
2025-094D
轨道中心:
EARTH
卫星名称:
星链-33979
卫星全名:
星链-33979 (STARLINK-33979)
卫星状态:
在轨 (已飞行483 天)
发射日期:
2025-05-10 UTC
国别 :
美国 (US)
星等 :
--
轨道信息
数据来源 国际轨道数据
星历时间: 2026-09-05T12:00:02+0800
6小时前
查看轨道信息
半长轴: 6865.849km
偏心率: 0.0000459
轨道倾角: 69.999°
近地点辐角 352.226°
升交点赤经 141.559°
平近点角 129.856°
近地点: 487.396km
远地点: 488.028km
周期: 94.363分钟
每日圈数: 15.260241
详细信息
固有亮度:
5
最大亮度:
2.5
卫星平台:
Starlink V1.0
覆盖范围:
全球
运营商:
太空探索技术公司
运营商所在国:
美国
制造商(研发单位):
太空探索技术公司
制造商所在国:
美国
使用方式:
暂无
卫星简介
Starlink 计划是 SpaceX 推出的全球卫星互联网项目,通过发射低轨道卫星,为全球尤其是偏远地区提供高速、低延迟的互联网服务。自 2019 年起,Starlink 已部署数千颗卫星,旨在缩小全球数字鸿沟,推动互联网普及。该项目还为军事、航空等行业提供通信支持,带来广泛经济效益。
2D轨道图
3D轨道图
轨道高度分析图
轨道倾角分析图
轨道综合分析图
查看轨道综合分析图
交会数据列表
事件ID 空间交会对象 最接近时刻(TCA) 交会距离 交会风险概率(CRP) 交会风险指数(CRI) 操作
CDM_260905-095005-303706-386721
2026-09-05T
09:50:56+0000
0.502 km
远距离
1.890195E-4 高风险 0.81
CDM_260905-112206-386706-728921
2026-09-05T
11:22:14+0000
2.180 km
极远距离
2.355759E-6 低风险 0.42
CDM_260906-091606-005206-386721
2026-09-06T
09:16:04+0000
2.271 km
极远距离
1.999064E-6 低风险 0.41
CDM_260905-200606-056206-386721
2026-09-05T
20:06:41+0000
2.402 km
极远距离
1.916633E-6 低风险 0.41
CDM_260905-235204-868406-386721
2026-09-05T
23:52:31+0000
2.573 km
极远距离
1.576718E-6 低风险 0.39
CDM_260831-065406-189406-386721
OBJECT A (61894)
2026-08-31T
06:54:41+0000
2.709 km
极远距离
1.537478E-6 低风险 0.39
CDM_260905-120906-386706-728922
2026-09-05T
12:09:25+0000
2.852 km
极远距离
1.44759E-6 低风险 0.38
CDM_260906-172705-346606-386721
2026-09-06T
17:27:37+0000
2.858 km
极远距离
1.341264E-6 低风险 0.38
CDM_260901-112204-002806-386721
2026-09-01T
11:22:32+0000
2.878 km
极远距离
1.281148E-6 低风险 0.37
CDM_260906-094506-386706-891821
2026-09-06T
09:45:18+0000
2.433 km
极远距离
1.249517E-6 低风险 0.37